Daviess Cnty AP, Washington,, IN

1:22 PM EDT on May 23, 2017 (GMT -0400)
Daviess County

Weather History for KDCY - December, 2013

Change the Weather History Date:

Thursday, December 19, 2013

  Actual Average (KLWV) Record (KLWV)
Temperature  
Mean Temperature 46 °F -  
Max Temperature 56 °F 36 °F 60 °F (2008)
Min Temperature 37 °F 22 °F 1 °F (1996)
Degree Days  
Heating Degree Days 19    
Moisture  
Dew Point 38 °F    
Average Humidity 73    
Maximum Humidity 81    
Minimum Humidity 56    
Precipitation  
Precipitation 0.00 in - - ()
Sea Level Pressure  
Sea Level Pressure 29.99 in    
Wind  
Wind Speed 15 mph (South)    
Max Wind Speed 20 mph    
Max Gust Speed 26 mph    
Visibility 10 miles    
Events      
Averages and records for this station are not official NWS values.
T = Trace of Precipitation, MM = Missing Value Source: NWS Daily Summary

Daily Weather History Graph

Daily Weather History Graph

Search for Another Location

Airport or City:

Trip Planner

Search our weather history database for the weather conditions in past years. The results will help you decide how hot, cold, wet, or windy it might be!

Date:

Astronomy

Dec. 19, 2013 Rise Set
Actual Time 8:01 AM EST 5:29 PM EST
Civil Twilight 7:32 AM EST 5:59 PM EST
Nautical Twilight 6:58 AM EST 6:32 PM EST
Astronomical Twilight 6:26 AM EST 7:05 PM EST
Moon 7:53 PM EST (12/19) 9:21 AM EST (12/19)
Length of Visible Light 10h 27m
Length of Day
9h 27m
Waning Gibbous, 95% of the Moon is Illuminated
Dec 19
Waning Gibbous
Dec 25
Last Quarter
Jan 1
New
Jan 7
First Quarter
Jan 15
Full

Hourly Weather History & Observations

Time (EST) Temp. Windchill Dew Point Humidity Pressure Visibility Wind Dir Wind Speed Gust Speed Precip Events Conditions
12:15 AM 39.9 °F 31.4 °F 25.3 °F 56% 30.03 in 10.0 mi South 16.1 mph 23.0 mph N/A   Clear
12:35 AM 39.0 °F 29.9 °F 26.1 °F 60% 30.02 in 10.0 mi South 17.3 mph - N/A   Clear
12:55 AM 39.4 °F 30.7 °F 26.4 °F 60% 30.02 in 10.0 mi SSW 16.1 mph 20.7 mph N/A   Clear
1:15 AM 39.9 °F 31.4 °F 26.6 °F 59% 30.02 in 10.0 mi South 16.1 mph 21.9 mph N/A   Clear
1:35 AM 39.4 °F 30.4 °F 27.1 °F 62% 30.02 in 10.0 mi South 17.3 mph - N/A   Clear
1:55 AM 39.2 °F 30.8 °F 27.5 °F 63% 30.02 in 10.0 mi South 15.0 mph - N/A   Clear
2:15 AM 39.2 °F 31.2 °F 27.9 °F 64% 30.03 in 10.0 mi SSW 13.8 mph - N/A   Clear
2:35 AM 39.0 °F 31.4 °F 28.0 °F 65% 30.03 in 10.0 mi SSW 12.7 mph - N/A   Clear
2:55 AM 38.7 °F 30.5 °F 28.4 °F 67% 30.03 in 10.0 mi South 13.8 mph - N/A   Clear
3:15 AM 38.7 °F 30.5 °F 28.8 °F 68% 30.04 in 10.0 mi South 13.8 mph - N/A   Clear
3:35 AM 38.8 °F 30.8 °F 29.1 °F 68% 30.04 in 10.0 mi SSW 13.8 mph - N/A   Clear
3:55 AM 39.0 °F 31.0 °F 29.1 °F 68% 30.04 in 10.0 mi SSW 13.8 mph - N/A   Clear
4:15 AM 38.3 °F 30.1 °F 29.3 °F 70% 30.04 in 10.0 mi South 13.8 mph - N/A   Clear
4:35 AM 38.1 °F 29.8 °F 29.5 °F 71% 30.03 in 10.0 mi SSW 13.8 mph - N/A   Clear
4:55 AM 38.5 °F 30.3 °F 30.0 °F 72% 30.03 in 10.0 mi South 13.8 mph - N/A   Clear
5:15 AM 38.3 °F 30.5 °F 30.4 °F 73% 30.03 in 10.0 mi South 12.7 mph - N/A   Clear
5:35 AM 37.9 °F 29.6 °F 30.9 °F 76% 30.03 in 10.0 mi South 13.8 mph - N/A   Clear
5:55 AM 37.2 °F 30.0 °F 30.9 °F 78% 30.03 in 10.0 mi South 10.4 mph - N/A   Clear
6:15 AM 37.0 °F 29.3 °F 30.9 °F 79% 30.03 in 10.0 mi South 11.5 mph - N/A   Clear
6:35 AM 37.4 °F 29.3 °F 31.1 °F 78% 30.03 in 10.0 mi South 12.7 mph - N/A   Clear
6:55 AM 38.1 °F 29.8 °F 31.6 °F 77% 30.02 in 10.0 mi South 13.8 mph - N/A   Clear
7:15 AM 38.3 °F 29.7 °F 32.0 °F 78% 30.02 in 10.0 mi South 15.0 mph - N/A   Clear
7:35 AM 38.3 °F 29.3 °F 32.0 °F 78% 30.02 in 10.0 mi South 16.1 mph - N/A   Clear
7:55 AM 38.3 °F 29.3 °F 32.0 °F 78% 30.03 in 10.0 mi South 16.1 mph - N/A   Clear
8:15 AM 38.5 °F 29.9 °F 32.2 °F 78% 30.03 in 10.0 mi South 15.0 mph - N/A   Clear
8:35 AM 39.2 °F 30.5 °F 32.7 °F 78% 30.03 in 10.0 mi South 16.1 mph - N/A   Clear
8:55 AM 40.5 °F 31.8 °F 33.4 °F 76% 30.03 in 10.0 mi South 17.3 mph - N/A   Clear
9:15 AM 41.2 °F 33.0 °F 34.0 °F 76% 30.03 in 10.0 mi South 16.1 mph - N/A   Clear
9:35 AM 42.6 °F 34.9 °F 34.9 °F 74% 30.04 in 10.0 mi South 16.1 mph - N/A   Clear
9:55 AM 43.0 °F 35.4 °F 35.1 °F 74% 30.04 in 10.0 mi South 16.1 mph - N/A   Clear
10:15 AM 43.9 °F 36.2 °F 36.1 °F 74% 30.04 in 10.0 mi South 17.3 mph - N/A   Clear
10:35 AM 46.2 °F 39.3 °F 37.4 °F 71% 30.04 in 10.0 mi SSW 17.3 mph 21.9 mph N/A   Clear
10:55 AM 48.7 °F - 38.3 °F 67% 30.04 in 10.0 mi SSW 18.4 mph 25.3 mph N/A   Clear
11:15 AM 49.1 °F - 38.7 °F 67% 30.04 in 10.0 mi SSW 16.1 mph 21.9 mph N/A   Clear
11:35 AM 50.2 °F - 39.6 °F 67% 30.04 in 10.0 mi SSW 17.3 mph 23.0 mph N/A   Clear
11:55 AM 50.9 °F - 40.5 °F 67% 30.03 in 10.0 mi SSW 19.6 mph 26.5 mph N/A   Clear
12:15 PM 52.2 °F - 41.9 °F 68% 30.02 in 10.0 mi SSW 15.0 mph 21.9 mph N/A   Clear
12:35 PM 52.7 °F - 42.3 °F 68% 30.01 in 10.0 mi South 19.6 mph 24.2 mph N/A   Clear
12:55 PM 53.2 °F - 43.3 °F 69% 30.00 in 10.0 mi SSW 16.1 mph 25.3 mph N/A   Clear
1:15 PM 53.8 °F - 43.9 °F 69% 29.99 in 10.0 mi SSW 16.1 mph 24.2 mph N/A   Clear
1:35 PM 53.8 °F - 44.4 °F 71% 29.99 in 10.0 mi SSW 13.8 mph 24.2 mph N/A   Clear
1:55 PM 54.5 °F - 45.1 °F 71% 29.99 in 10.0 mi South 16.1 mph 20.7 mph N/A   Clear
2:15 PM 54.5 °F - 45.3 °F 71% 29.98 in 10.0 mi SSW 15.0 mph 24.2 mph N/A   Clear
2:35 PM 55.8 °F - 46.0 °F 70% 29.97 in 10.0 mi SSW 16.1 mph 21.9 mph N/A   Scattered Clouds
2:55 PM 55.8 °F - 46.0 °F 70% 29.97 in 10.0 mi SSW 16.1 mph 26.5 mph N/A   Scattered Clouds
3:15 PM 55.9 °F - 46.2 °F 70% 29.97 in 10.0 mi SSW 10.4 mph 20.7 mph N/A   Scattered Clouds
3:35 PM 55.0 °F - 46.8 °F 74% 29.97 in 10.0 mi South 8.1 mph 16.1 mph N/A   Mostly Cloudy
3:55 PM 54.1 °F - 46.2 °F 75% 29.96 in 10.0 mi South 10.4 mph - N/A   Overcast
4:15 PM 55.2 °F - 46.4 °F 72% 29.96 in 10.0 mi SSW 17.3 mph - N/A   Overcast
4:35 PM 55.0 °F - 46.4 °F 73% 29.96 in 10.0 mi SSW 13.8 mph 20.7 mph N/A   Overcast
4:55 PM 54.7 °F - 46.2 °F 73% 29.96 in 10.0 mi SSW 11.5 mph - N/A   Overcast
5:15 PM 54.5 °F - 46.4 °F 74% 29.96 in 10.0 mi South 12.7 mph - N/A   Overcast
5:35 PM 53.6 °F - 45.9 °F 75% 29.95 in 10.0 mi South 10.4 mph - N/A   Mostly Cloudy
5:55 PM 52.5 °F - 45.5 °F 77% 29.94 in 10.0 mi South 11.5 mph - N/A   Clear
6:15 PM 52.0 °F - 44.8 °F 76% 29.95 in 10.0 mi South 10.4 mph - N/A   Clear
6:35 PM 52.2 °F - 44.2 °F 74% 29.94 in 10.0 mi South 15.0 mph - N/A   Clear
6:55 PM 51.6 °F - 43.9 °F 75% 29.93 in 10.0 mi South 12.7 mph - N/A   Clear
7:15 PM 51.3 °F - 43.9 °F 76% 29.93 in 10.0 mi South 13.8 mph - N/A   Clear
7:35 PM 50.9 °F - 43.7 °F 76% 29.93 in 10.0 mi South 11.5 mph - N/A   Clear
7:55 PM 50.5 °F - 43.7 °F 77% 29.93 in 10.0 mi South 12.7 mph - N/A   Clear
8:15 PM 50.5 °F - 43.7 °F 77% 29.93 in 10.0 mi South 11.5 mph - N/A   Clear
8:35 PM 50.0 °F - 44.1 °F 80% 29.92 in 10.0 mi South 11.5 mph - N/A   Clear
8:55 PM 50.4 °F - 44.6 °F 81% 29.93 in 10.0 mi South 11.5 mph - N/A   Scattered Clouds
9:15 PM 51.1 °F - 45.0 °F 80% 29.93 in 10.0 mi South 11.5 mph 16.1 mph N/A   Mostly Cloudy
9:35 PM 52.7 °F - 46.2 °F 79% 29.92 in 10.0 mi South 16.1 mph - N/A   Overcast
9:55 PM 53.4 °F - 46.6 °F 78% 29.92 in 10.0 mi South 16.1 mph 21.9 mph N/A   Overcast
10:15 PM 54.0 °F - 46.9 °F 77% 29.92 in 10.0 mi South 15.0 mph - N/A   Overcast
10:35 PM 53.8 °F - 47.3 °F 79% 29.92 in 10.0 mi South 15.0 mph 23.0 mph N/A   Overcast
10:55 PM 53.8 °F - 47.3 °F 79% 29.91 in 10.0 mi South 15.0 mph 20.7 mph N/A   Overcast
11:15 PM 53.8 °F - 47.3 °F 79% 29.91 in 10.0 mi South 15.0 mph 20.7 mph N/A   Overcast
11:35 PM 53.2 °F - 47.3 °F 80% 29.91 in 10.0 mi South 12.7 mph - N/A   Overcast
11:55 PM 53.1 °F - 46.8 °F 79% 29.90 in 10.0 mi South 16.1 mph 19.6 mph N/A   Overcast